User: anonymous   Login
Location: Unspecified
(0.0000°N, 0.0000°E)
Time: 03:47:56
(UTC+00:00)
Language:

OPTUS D3 - Orbit

View from above orbital plane
View from above orbital plane
View from above satellite
View from above satellite

Ground track
Ground track

The orbit data is extracted from the following two-line orbital elements,

1 35756U 09044B   14295.50349328 -.00000149  00000-0  00000+0 0  1882
2 35756 000.0555 026.7354 0002779 202.9298 138.4768 01.00272911 18961
Epoch (UTC): 22 October 2014 12:05:01
Eccentricity: 0.0002779
inclination: 0.0555°
perigee height: 35774 km
apogee height: 35797 km
right ascension of ascending node: 26.7354°
argument of perigee: 202.9298°
revolutions per day: 1.00272911
mean anomaly at epoch: 138.4768°
orbit number at epoch: 1896

The dashed part of the orbit path shows where the satellite is in the earth's shadow,  

DLR